#timestamp,LO_Frequency,Hit,StdDev 
1661965215.7,286047004.5,N
1661965235.5,286047002.4,N
1661965255.3,286047000.5,N
1661965275.2,286047004.1,N
1661965295.0,286047002.7,N
1661965295.9,286047002.7,N
1661965315.7,286047002.4,N
1661965335.6,286046999.8,N
1661965355.4,286047003.1,N
1661965375.3,286047001.8,N
1661965395.1,286047003.6,N
1661965396.0,286047003.6,N
1661965415.8,286047005.8,N
1661965435.7,286047002.1,N
1661965455.5,286047001.9,N
1661965475.3,286047002.1,N
1661965495.2,286047001.6,N
1661965515.0,286047000.2,N
1661965515.9,286047000.2,N
1661965535.8,286046999.2,N
1661965555.6,286046997.2,N
1661965575.4,286046996.8,N
1661965595.3,286046997.6,N
1661965615.1,286046997.0,N
1661965635.9,286046994.5,N
1661965655.7,286046992.9,N
1661965675.5,286046997.3,N
1661965695.4,286047001.8,N
1661965715.2,286046999.5,N
1661965735.0,286046993.3,N
1661965736.0,286046993.3,N
1661965755.8,286046991.7,N
1661965775.6,286046991.9,N
1661965795.5,286046996.1,N
1661965815.3,286046996.0,N
1661965835.1,286046991.7,N
1661965855.9,286046994.4,N
1661965875.7,286046993.0,N
1661965895.6,286046996.4,N
1661965915.4,286046994.3,N
1661965935.2,286046995.9,N
1661965955.1,286046995.9,N
1661965956.0,286046995.9,N
1661965975.8,286046992.1,N
1661965995.7,286046996.4,N
1661966015.5,286046994.3,N
1661966035.3,286046991.9,N
1661966055.2,286046993.7,N
1661966075.0,286046995.5,N
1661966075.9,286046995.5,N
1661966095.7,286046996.0,N
1661966115.6,286046997.6,N
1661966135.4,286046994.0,N
1661966155.3,286046994.2,N
1661966175.1,286046992.1,Y
1661966195.8,286046997.7,P
1661966215.7,286046992.2,P
1661966235.5,286046994.9,N
1661966255.4,286046998.0,N
1661966275.2,286046992.1,Y
1661966295.0,286046996.5,P
1661966295.9,286046996.5,P
1661966315.8,286046997.0,P
1661966335.6,286047000.8,N
1661966355.5,286047002.2,N
1661966375.3,286047000.5,N
1661966395.1,286047002.6,N
1661966415.9,286047001.8,N
1661966435.7,286046999.0,N
1661966455.5,286046999.6,N
1661966475.4,286047000.4,N
1661966495.2,286047002.3,N
1661966515.1,286046996.8,N
1661966516.0,286046996.8,N
1661966535.8,286047000.8,N
1661966555.6,286046997.3,N
1661966575.5,286046999.0,N
1661966595.3,286047001.1,N
1661966615.1,286046996.7,N
1661966635.9,286046998.8,N
1661966655.7,286047002.6,N
1661966675.6,286047002.6,N
1661966695.4,286047001.9,N
1661966715.2,286047000.2,N
1661966735.1,286047001.0,N
1661966736.0,286047001.0,N
1661966755.8,286046999.8,N
1661966775.6,286047000.2,N
1661966795.5,286046999.4,N
1661966815.3,286046999.6,N
1661966835.2,286046998.4,N
1661966855.0,286046997.7,N
1661966855.9,286046997.7,N
1661966875.7,286046995.8,N
1661966895.6,286046995.4,N
1661966915.4,286046994.1,N
1661966935.3,286046990.2,Y
1661966955.1,286046991.1,P
1661966956.0,286046991.1,N
1661966975.8,286046990.7,N
1661966995.7,286046988.5,Y
1661967015.5,286046997.9,P
1661967035.4,286047000.3,N
1661967055.2,286047002.4,N
1661967075.0,286046998.6,N
1661967075.9,286046998.6,N
1661967095.8,286046999.3,N
1661967115.6,286047001.7,N
1661967135.4,286047003.8,N
1661967155.3,286047005.1,N
1661967175.1,286047004.4,N
1661967195.9,286047001.3,N
1661967215.7,286047004.8,N
1661967235.5,286047004.8,N
1661967255.4,286047004.2,N
1661967275.2,286047004.0,N
1661967295.0,286047005.7,N
1661967295.9,286047005.7,N
1661967315.8,286047006.6,N
1661967335.6,286047007.6,N
1661967355.5,286047004.8,N
1661967375.3,286047006.9,N
1661967395.1,286047007.3,N
1661967415.9,286047005.1,N
1661967435.7,286047001.7,N
1661967455.5,286047004.2,N
1661967475.4,286047005.7,N
1661967495.2,286047006.2,N
1661967515.1,286047010.4,Y
1661967516.0,286047010.4,P
1661967535.8,286047004.8,N
1661967555.6,286047001.7,N
1661967575.5,286047002.8,N
1661967595.3,286047002.5,N
1661967615.1,286047002.8,N
1661967635.9,286047005.5,N
1661967655.7,286047006.0,N
1661967675.6,286047002.7,N
1661967695.4,286046999.9,N
1661967715.2,286047000.0,N
1661967735.1,286046999.6,N
1661967736.0,286046999.6,N
1661967755.8,286046996.6,N
1661967775.6,286046997.4,N
1661967795.5,286046997.0,N
1661967815.3,286046994.7,N
1661967835.2,286046993.2,N
1661967855.9,286046990.6,N
1661967875.7,286046990.3,N
1661967895.6,286046994.8,N
1661967915.4,286046992.3,N
1661967935.2,286046991.1,N
1661967955.1,286046989.4,N
1661967956.0,286046989.4,N
1661967975.8,286046987.8,N
1661967995.7,286046986.3,N
1661968015.5,286046983.8,N
1661968035.3,286046982.2,N
1661968055.2,286046980.6,N
1661968075.0,286046981.6,N
1661968075.9,286046981.6,N
1661968095.7,286046982.9,N
1661968115.6,286046979.8,N
1661968135.4,286046978.2,N
1661968155.3,286046977.7,N
1661968175.1,286046977.4,N
1661968176.0,286046977.4,N
1661968195.8,286046975.3,Y
1661968215.7,286046985.1,P
1661968235.5,286046982.1,P
1661968255.4,286046984.9,P
1661968275.2,286046985.0,Y
1661968295.0,286046997.2,P
1661968295.9,286046997.2,N
1661968315.8,286046995.5,N
1661968335.6,286046996.2,N
1661968355.4,286046993.3,N
1661968375.3,286046994.2,N
1661968395.1,286046992.5,N
1661968415.9,286046992.0,N
1661968435.7,286046989.0,Y
1661968455.5,286046993.8,P
1661968475.4,286046993.9,P
1661968495.2,286046993.8,P
1661968515.1,286046990.2,Y
1661968516.0,286046990.2,P
1661968535.8,286046996.7,N
1661968555.6,286046995.3,N
1661968575.5,286046996.4,N
1661968595.3,286046993.3,N
1661968615.2,286046994.6,N
1661968635.9,286046994.8,N
1661968655.7,286046991.7,Y
1661968675.6,286046996.6,P
1661968695.4,286046996.9,N
1661968715.3,286047000.7,N
1661968735.1,286046998.2,N
1661968736.0,286046998.2,N
1661968755.8,286046997.2,N
1661968775.7,286046999.1,N
1661968795.5,286046999.0,N
